Wetbulb
46.96 42.16 38.30 40.13 42.00 43.08 43.74 39.69 38.80 38.71 43.06 42.09 41.20 40.88 42.59 44.15 46.87 48.22 49.85 50.73 50.53 50.19 52.29 54.37 56.00 57.67 57.34 57.48 56.79 55.71 55.98 54.51 56.57 52.57 51.99 50.73 49.26 50.07 50.46 52.51 53.67 52.95 52.49 51.59
42.82 39.08 43.69 46.22 46.14 44.52 43.39 41.17 39.58 42.49 45.26 41.35 40.30 39.99 42.28 46.00 45.13 48.29 49.60 49.93 49.87 49.53 50.75 51.67 52.31 52.07 52.32 52.65 54.18 53.70 51.60 51.44 51.26 52.05 51.36 51.60 49.91 51.61 52.06 52.53 52.62 50.83 49.34 49.02
40.41 43.04 47.19 46.17 43.71 43.27 42.06 40.30 39.41 39.98 42.01 41.38 41.83 38.83 41.25 45.07 47.09 47.71 47.79 49.76 50.45 49.57 49.17 50.03 50.49 49.70 50.09 50.79 50.29 49.98 49.99 50.34 50.49 51.76 51.16 50.71 51.10 50.63 50.46 49.93 48.54 48.06 48.19 47.23
43.12 47.08 46.27 44.20 42.95 42.70 39.58 44.51 43.46 41.56 38.02 33.79 38.45 30.27 38.67 42.17 43.80 45.88 47.08 47.45 48.90 49.74 50.29 50.45 49.70 48.51 48.35 47.82 48.16 49.25 50.18 50.01 50.61 50.34 49.34 49.42 48.63 47.97 48.30 47.39 45.44 44.61 45.55 45.76
41.99 43.71 43.51 42.49 42.91 44.40 42.22 45.05 42.76 41.61 37.40 36.10 37.35 33.20 36.74 42.60 41.21 42.35 44.13 46.49 47.01 48.33 49.34 48.81 48.74 48.91 48.73 48.27 48.18 48.33 49.44 49.79 50.13 49.80 49.72 49.03 47.11 45.92 46.33 44.32 43.39 43.52 44.70 45.94
43.86 46.49 44.43 43.29 45.99 45.55 45.91 43.79 42.95 41.01 38.10 30.06 38.18 35.60 34.63 38.19 41.28 43.48 45.20 45.57 46.65 46.53 47.45 48.42 49.06 49.44 48.45 48.04 48.02 47.59 49.26 49.40 49.95 49.09 48.57 46.66 44.99 44.23 42.97 42.31 43.37 44.55 44.79 43.47
42.86 43.08 45.25 46.59 43.34 45.38 43.16 39.22 29.64 29.14 28.23 28.03 40.18 36.04 35.94 42.10 44.81 45.39 44.70 44.66 45.59 46.08 46.87 47.55 48.25 48.11 48.54 48.14 48.44 49.51 49.06 48.19 48.30 46.37 45.08 44.57 43.84 43.47 44.74 44.40 44.01 42.61 43.41 42.56
36.53 34.30 41.98 45.38 42.38 39.68 41.09 38.44 28.93 27.76 25.21 28.18 38.03 32.69 35.72 43.70 46.46 47.42 48.30 46.33 46.51 46.79 46.98 47.00 46.84 46.80 47.22 47.93 47.93 48.40 46.96 45.43 45.67 44.86 44.11 43.98 44.01 45.59 46.04 44.12 43.81 42.69 40.42 39.89
36.87 37.24 43.77 44.10 44.34 43.86 40.99 35.10 40.26 32.52 29.65 26.37 32.59 36.76 41.04 43.50 44.83 46.15 46.17 48.15 46.56 44.56 44.74 46.64 46.53 46.49 46.94 46.45 45.78 47.20 47.13 45.47 44.78 44.54 44.06 43.94 46.26 46.24 44.01 42.95 40.47 39.74 39.80 41.26
41.32 35.12 42.12 43.90 46.10 45.39 41.16 42.44 34.16 31.16 24.43 24.57 29.97 32.77 33.69 39.35 41.18 42.80 42.36 42.72 44.22 45.07 45.25 45.52 45.53 45.65 45.86 45.60 45.86 46.94 47.18 45.53 44.79 44.24 44.05 44.59 43.53 43.19 41.53 40.40 39.23 39.01 38.75 38.83
42.30 38.69 38.02 43.22 39.63 38.18 39.47 37.45 37.60 36.20 30.03 24.78 22.41 28.69 39.72 40.95 42.24 41.51 42.19 43.11 43.46 44.03 44.64 44.57 44.87 44.38 44.79 44.37 44.42 44.01 43.66 44.08 44.16 43.63 43.43 42.77 41.61 40.89 40.52 39.55 38.64 38.60 38.26 37.71
42.02 37.28 29.98 37.40 42.67 43.73 41.23 39.19 37.51 26.83 29.80 27.33 26.28 27.65 42.71 41.95 43.00 43.98 43.94 44.42 45.17 45.52 44.49 44.84 43.78 43.68 42.73 42.24 41.92 41.85 42.03 42.42 43.92 43.84 43.26 42.52 41.38 40.29 38.63 38.90 39.24 37.40 37.07 37.69
41.32 35.78 28.27 34.20 39.22 41.75 39.08 40.13 40.61 35.97 29.79 27.87 21.00 26.53 42.93 43.30 42.90 43.96 42.29 42.77 43.73 43.07 42.54 42.13 42.05 41.66 41.65 41.38 41.23 40.35 39.41 39.83 41.69 42.36 42.02 41.49 41.66 40.29 37.67 37.54 37.30 38.66 37.09 37.35
44.49 38.74 33.54 29.57 33.65 36.46 33.67 36.97 38.94 35.81 26.81 28.45 28.17 32.87 38.45 39.89 40.49 41.50 41.73 41.68 41.06 40.98 41.46 40.75 40.35 40.35 40.07 40.01 38.53 38.08 38.11 38.40 38.60 39.26 39.99 39.68 39.42 39.65 36.89 37.36 37.89 38.53 38.79 39.30
41.64 34.34 36.41 36.50 37.81 37.57 36.14 35.53 35.64 34.75 34.89 29.58 32.48 34.19 38.61 40.19 40.18 41.28 42.41 41.47 40.88 41.06 40.99 41.13 40.26 39.64 38.68 37.60 37.18 37.15 36.89 37.37 37.68 36.70 36.46 38.57 38.97 38.94 38.62 39.12 38.53 38.48 38.97 38.99
42.27 32.42 32.66 32.32 37.79 37.26 33.23 35.88 36.00 35.76 36.46 35.87 35.59 35.65 41.18 41.61 41.68 40.89 40.43 39.87 40.09 40.63 40.19 39.64 40.04 39.49 38.15 37.12 35.73 36.34 36.25 36.54 36.95 35.98 38.06 39.29 39.24 38.99 38.71 38.58 39.00 37.83 37.73 34.37
37.66 31.79 28.22 26.72 33.01 32.42 26.04 34.16 36.96 37.05 37.95 36.82 31.30 36.74 40.01 39.19 40.09 38.84 38.60 39.03 39.01 38.91 38.71 38.99 38.82 37.73 36.44 35.26 35.76 34.72 35.29 36.17 35.68 36.48 37.91 37.94 38.91 37.54 37.22 38.10 37.91 36.88 35.57 35.56
34.36 31.97 26.59 22.39 23.96 16.68 35.16 40.48 40.09 38.08 38.67 39.76 39.18 39.07 39.46 39.56 39.66 38.99 39.19 38.28 38.35 38.83 39.05 38.00 36.49 35.45 35.10 34.73 34.76 35.05 35.10 34.90 34.59 35.92 36.36 36.45 36.62 35.81 36.32 36.15 35.58 35.63 35.32 30.85
39.88 29.78 26.09 19.92 23.61 28.17 34.69 39.07 37.77 35.54 34.77 41.03 39.67 39.83 40.04 39.78 38.37 36.92 40.02 39.71 38.80 37.92 37.13 36.47 35.64 35.37 34.13 34.11 34.43 34.22 34.10 33.47 34.98 35.44 35.28 35.80 35.76 35.40 35.09 34.80 33.92 33.93 30.94 28.87
38.86 32.45 26.79 26.83 16.86 15.28 30.23 39.94 42.57 40.89 29.45 41.55 41.32 39.82 39.32 38.61 29.96 34.27 40.82 40.37 37.62 36.62 36.92 35.37 34.81 34.39 33.36 34.18 34.25 33.19 32.59 32.50 34.19 35.62 35.64 35.90 35.82 35.26 34.28 33.51 32.91 30.38 28.77 29.57
26.92 24.57 23.08 18.39 16.14 25.92 35.66 41.38 42.50 28.37 29.75 41.68 41.38 39.97 39.33 35.97 35.94 39.04 41.24 38.59 36.71 36.85 35.84 35.63 34.19 33.12 33.58 33.81 33.60 32.70 32.47 32.55 34.78 35.64 35.66 35.06 33.95 32.83 32.60 30.88 29.99 28.74 28.57 27.35
28.78 25.86 24.06 22.99 17.01 21.66 40.06 40.74 33.62 36.31 40.65 42.18 40.91 40.68 39.86 39.90 40.66 41.41 40.81 37.04 36.69 34.62 33.94 34.13 33.31 33.05 33.66 33.90 33.56 32.49 31.97 33.81 34.50 34.29 33.63 32.44 31.92 31.97 31.54 27.99 27.54 27.47 25.47 24.32
30.97 32.28 29.81 31.97 31.00 37.94 40.91 40.51 41.49 43.29 42.02 40.95 40.25 41.30 41.86 40.45 40.80 41.05 37.25 35.19 34.17 32.64 32.22 33.65 31.69 32.50 33.40 33.82 33.47 32.45 33.25 34.07 33.50 32.68 31.17 30.29 30.69 30.86 29.72 26.42 25.14 24.75 24.00 20.54
38.04 41.01 33.03 34.58 39.14 39.96 41.61 42.77 44.06 43.81 42.35 42.64 42.64 42.03 42.64 41.33 40.55 35.67 33.89 33.07 32.22 31.54 31.14 31.88 31.94 31.64 31.89 33.25 34.12 33.66 33.93 34.04 32.09 30.79 29.90 29.56 28.99 28.79 28.30 26.81 26.62 24.35 19.73 18.40
36.25 39.65 37.67 34.18 38.79 40.86 42.55 42.72 43.00 42.40 42.63 42.93 43.95 44.82 43.34 37.73 34.00 33.45 32.51 32.25 31.78 31.16 31.97 32.19 31.63 31.69 32.12 33.10 33.15 33.36 33.52 32.78 31.04 30.74 29.99 28.52 27.27 27.12 27.34 25.64 24.89 24.84 23.32 21.96
40.18 37.83 33.42 33.67 39.67 39.36 40.65 42.73 43.77 42.80 43.29 45.61 43.32 37.52 36.09 34.59 33.11 32.86 31.59 31.88 31.62 31.12 31.71 31.59 31.99 31.85 32.23 32.39 32.13 32.68 33.03 33.17 32.22 29.94 28.92 27.59 25.33 23.87 25.81 25.96 26.24 28.62 27.78 27.19
MSLP
1010.37 1011.23 1011.69 1011.80 1011.91 1012.17 1012.33 1012.31 1012.20 1012.27 1012.25 1012.64 1013.83 1014.61 1014.85 1014.76 1015.18 1016.02 1016.37 1017.27 1017.80 1018.27 1018.67 1018.38 1018.73 1019.14 1019.76 1020.43 1020.83 1020.59 1020.68 1020.56 1020.98 1021.21 1021.45 1021.70 1022.29 1022.10 1022.48 1022.59 1022.36 1022.22 1022.17 1022.30
1011.59 1011.96 1011.88 1011.99 1012.11 1012.43 1012.46 1012.68 1013.09 1012.86 1012.78 1013.49 1014.91 1015.86 1016.10 1015.62 1016.37 1016.65 1017.11 1017.78 1018.33 1019.01 1019.45 1019.69 1019.87 1020.41 1020.95 1021.33 1021.42 1021.51 1021.29 1021.12 1021.44 1021.42 1021.93 1022.19 1022.45 1022.62 1022.00 1022.39 1022.68 1022.87 1022.71 1022.64
1012.01 1012.15 1011.96 1012.34 1012.78 1013.14 1013.48 1013.45 1013.66 1013.85 1013.80 1014.39 1015.29 1016.93 1017.25 1017.45 1017.34 1017.59 1018.14 1018.43 1019.00 1019.53 1020.10 1020.71 1020.98 1021.56 1021.68 1021.93 1021.91 1021.73 1021.57 1021.55 1021.62 1021.81 1021.96 1022.15 1022.29 1022.38 1022.56 1022.79 1023.10 1022.99 1022.79 1022.88
1012.37 1012.39 1012.54 1012.83 1013.22 1013.32 1013.56 1013.86 1014.05 1014.41 1014.76 1015.33 1015.55 1017.93 1018.59 1018.59 1018.55 1018.66 1019.06 1019.33 1019.87 1020.28 1020.77 1020.99 1021.49 1021.95 1022.07 1022.14 1021.92 1021.74 1021.66 1021.65 1021.70 1021.57 1021.94 1022.26 1022.72 1023.01 1023.20 1023.31 1023.47 1023.37 1023.20 1023.49
1013.25 1013.08 1013.23 1013.26 1013.35 1013.35 1013.73 1013.73 1014.13 1014.63 1015.43 1016.00 1016.52 1017.54 1019.04 1019.00 1019.12 1019.53 1019.84 1020.09 1020.33 1020.47 1020.62 1021.31 1021.60 1021.67 1021.77 1022.01 1022.03 1021.80 1021.72 1021.84 1021.83 1021.85 1021.95 1022.25 1022.70 1023.05 1023.33 1023.65 1023.68 1023.78 1023.88 1023.72
1013.22 1013.22 1013.31 1013.29 1013.23 1013.35 1013.68 1014.22 1015.17 1015.87 1016.78 1017.48 1017.42 1017.68 1019.24 1019.03 1019.16 1019.70 1020.20 1020.42 1020.67 1020.78 1021.06 1021.42 1021.69 1021.65 1021.86 1021.84 1021.88 1021.94 1021.97 1022.10 1022.07 1022.35 1022.64 1022.79 1023.14 1023.55 1023.78 1023.83 1023.95 1023.84 1023.29 1024.16
1014.08 1014.10 1013.69 1013.46 1013.56 1013.70 1014.17 1015.25 1016.86 1018.30 1019.05 1019.12 1018.35 1018.54 1019.43 1018.92 1019.11 1019.38 1020.07 1020.71 1020.96 1021.04 1021.41 1021.58 1021.71 1021.81 1022.09 1022.36 1022.37 1022.45 1022.77 1023.20 1023.22 1023.41 1023.54 1023.75 1023.91 1023.95 1023.88 1023.90 1024.15 1024.03 1024.80 1023.73
1014.96 1015.07 1014.48 1014.09 1014.23 1014.57 1015.06 1016.04 1017.76 1019.45 1020.61 1020.32 1019.55 1019.80 1019.94 1019.38 1019.39 1019.59 1019.98 1020.51 1020.80 1021.29 1021.49 1022.09 1022.58 1022.77 1023.07 1023.23 1023.18 1023.26 1023.63 1024.03 1024.06 1024.13 1024.21 1024.12 1024.02 1024.07 1024.09 1023.84 1023.99 1023.92 1024.02 1023.99
1015.32 1015.50 1014.93 1014.57 1014.42 1014.82 1015.51 1016.67 1017.77 1019.77 1021.55 1021.93 1021.27 1020.76 1020.10 1019.76 1019.61 1019.76 1020.41 1020.62 1021.30 1022.19 1022.83 1023.08 1023.34 1023.36 1023.33 1023.59 1023.89 1024.02 1024.15 1024.30 1024.15 1024.08 1024.02 1023.93 1023.83 1023.85 1023.72 1023.70 1023.61 1023.41 1023.57 1023.25
1015.30 1015.78 1015.47 1014.95 1014.72 1014.89 1015.50 1016.64 1018.17 1020.03 1022.18 1023.01 1022.31 1021.39 1020.50 1020.32 1020.37 1020.65 1021.08 1021.48 1022.22 1022.82 1023.16 1023.36 1023.57 1023.89 1024.21 1024.39 1024.42 1024.25 1024.16 1024.24 1024.17 1023.85 1023.59 1023.55 1023.50 1023.41 1023.24 1023.20 1023.24 1023.23 1023.04 1022.90
1015.52 1016.05 1016.67 1016.01 1016.15 1016.18 1016.38 1017.28 1018.88 1020.58 1022.37 1023.32 1023.30 1022.20 1020.74 1020.61 1020.77 1021.36 1021.94 1022.34 1022.77 1023.35 1023.71 1024.05 1024.19 1024.28 1024.39 1024.29 1024.27 1024.33 1024.30 1024.10 1024.01 1023.59 1023.49 1023.41 1023.26 1023.08 1023.02 1023.02 1023.00 1022.84 1022.72 1022.62
1016.49 1017.27 1017.80 1017.47 1016.75 1016.48 1016.88 1017.92 1019.30 1021.51 1023.03 1023.73 1023.50 1022.43 1021.21 1021.09 1021.00 1021.44 1022.11 1022.65 1023.09 1024.07 1024.25 1024.34 1024.43 1024.49 1024.47 1024.39 1024.25 1024.29 1024.29 1024.02 1023.69 1023.70 1023.64 1023.44 1023.38 1023.22 1023.10 1023.16 1023.25 1023.50 1023.65 1022.84
1017.22 1018.11 1018.95 1018.77 1018.21 1017.40 1017.64 1018.29 1019.41 1021.17 1022.61 1023.66 1023.83 1022.49 1021.31 1021.48 1021.57 1021.73 1022.41 1023.23 1023.67 1024.09 1024.46 1024.51 1024.50 1024.42 1024.28 1024.36 1024.36 1024.34 1024.23 1024.14 1023.97 1023.80 1023.66 1023.60 1023.42 1023.13 1023.02 1023.08 1023.12 1023.31 1023.45 1023.47
1017.78 1018.72 1019.27 1019.34 1018.87 1018.59 1018.60 1018.99 1019.77 1020.86 1022.46 1023.00 1022.81 1022.06 1021.99 1022.15 1022.05 1022.51 1023.07 1023.40 1023.94 1024.15 1024.23 1024.16 1024.13 1024.31 1024.43 1024.38 1024.24 1024.23 1024.30 1024.11 1023.83 1023.67 1023.67 1023.64 1023.43 1023.25 1023.36 1023.17 1022.89 1022.88 1022.76 1022.49
1018.68 1019.87 1020.29 1020.38 1020.12 1019.53 1019.37 1019.48 1019.99 1020.66 1021.15 1021.88 1021.58 1021.74 1021.55 1021.91 1022.25 1022.74 1023.11 1023.48 1023.78 1024.05 1024.16 1024.21 1024.41 1024.37 1024.38 1024.29 1024.34 1024.36 1024.27 1024.00 1023.81 1023.81 1023.76 1023.67 1023.26 1023.14 1023.11 1022.83 1022.70 1022.47 1022.37 1022.07
1019.75 1021.06 1021.55 1021.91 1021.45 1021.01 1020.30 1019.82 1019.74 1020.01 1020.26 1020.68 1020.94 1021.55 1021.62 1022.17 1022.66 1023.36 1023.62 1023.68 1024.01 1024.25 1024.30 1024.42 1024.36 1024.32 1024.29 1024.44 1024.43 1024.27 1024.11 1023.96 1023.70 1023.67 1023.64 1023.37 1023.06 1023.14 1022.96 1022.73 1022.53 1022.22 1022.12 1021.84
1021.17 1022.64 1023.73 1023.93 1023.24 1022.19 1021.23 1019.70 1019.36 1019.38 1019.75 1020.13 1020.98 1021.34 1022.14 1022.86 1023.26 1023.64 1023.85 1023.91 1024.05 1024.08 1024.15 1024.22 1024.21 1024.07 1024.25 1024.25 1024.18 1024.14 1023.93 1023.62 1023.60 1023.65 1023.45 1023.10 1022.96 1022.92 1022.69 1022.55 1022.33 1022.21 1022.14 1021.81
1022.17 1023.90 1025.17 1025.74 1024.86 1023.69 1020.61 1019.45 1018.96 1019.36 1020.09 1020.38 1021.09 1021.97 1022.52 1022.96 1023.44 1023.80 1023.80 1023.70 1023.75 1023.81 1023.89 1023.88 1023.89 1024.02 1024.11 1024.12 1024.06 1023.96 1023.67 1023.49 1023.38 1023.16 1022.96 1022.87 1022.78 1022.73 1022.46 1022.33 1022.16 1022.17 1022.15 1021.96
1022.43 1024.41 1026.55 1026.97 1026.13 1023.82 1021.00 1019.61 1019.15 1019.37 1020.44 1020.87 1021.45 1022.24 1022.77 1023.34 1023.83 1024.01 1023.63 1023.45 1023.46 1023.49 1023.46 1023.59 1023.75 1023.89 1024.12 1024.16 1023.96 1023.61 1023.30 1023.18 1023.05 1022.90 1022.77 1022.68 1022.57 1022.39 1022.19 1022.09 1021.99 1021.94 1021.92 1022.15
1023.61 1024.56 1025.93 1027.38 1026.92 1024.45 1020.93 1019.47 1019.03 1019.38 1020.53 1020.76 1021.36 1022.26 1022.74 1023.37 1024.02 1023.72 1023.32 1023.29 1023.25 1023.22 1023.39 1023.72 1023.85 1024.08 1024.13 1023.80 1023.45 1023.43 1023.28 1023.08 1023.02 1022.98 1022.70 1022.43 1022.34 1022.26 1022.09 1021.76 1021.71 1021.74 1021.90 1022.36
1024.49 1025.70 1026.56 1026.97 1026.15 1023.19 1020.43 1019.33 1019.29 1020.41 1020.35 1020.45 1021.11 1021.85 1022.50 1023.00 1022.97 1022.97 1023.08 1023.01 1023.09 1023.23 1023.52 1023.76 1024.05 1024.19 1023.98 1023.83 1023.64 1023.40 1023.18 1023.01 1022.86 1022.75 1022.54 1022.37 1022.26 1022.11 1021.77 1021.57 1021.77 1021.88 1022.31 1022.69
1023.65 1024.90 1025.79 1026.14 1025.31 1021.96 1019.39 1019.45 1019.61 1019.38 1019.63 1020.17 1020.90 1021.34 1021.86 1022.14 1022.43 1022.63 1022.88 1023.05 1023.27 1023.51 1023.76 1023.92 1024.08 1024.10 1023.93 1023.69 1023.50 1023.42 1023.30 1023.06 1022.81 1022.54 1022.45 1022.46 1022.30 1022.05 1021.88 1021.87 1022.03 1022.26 1022.58 1022.99
1022.33 1021.59 1022.22 1022.60 1021.31 1019.31 1018.49 1017.90 1017.94 1018.49 1019.13 1019.91 1020.43 1020.93 1021.30 1021.89 1022.18 1022.49 1022.87 1023.27 1023.52 1023.81 1024.01 1024.03 1024.21 1024.12 1023.97 1023.80 1023.58 1023.49 1023.16 1022.82 1022.63 1022.56 1022.58 1022.48 1022.36 1022.21 1022.10 1022.13 1022.41 1022.63 1022.82 1023.00
1020.25 1020.01 1020.54 1020.64 1018.93 1018.64 1018.14 1018.01 1018.03 1018.44 1018.91 1019.51 1020.04 1020.65 1021.26 1021.68 1022.08 1022.75 1023.23 1023.51 1023.80 1024.00 1024.14 1024.14 1024.13 1024.22 1024.13 1023.85 1023.64 1023.46 1023.04 1022.61 1022.43 1022.44 1022.51 1022.48 1022.55 1022.41 1022.22 1022.27 1022.43 1022.67 1022.78 1022.86
1019.27 1019.11 1019.06 1019.06 1018.45 1018.14 1018.02 1018.04 1018.17 1018.63 1019.10 1019.68 1020.06 1020.40 1021.00 1021.75 1022.45 1022.92 1023.42 1023.77 1024.03 1024.20 1024.26 1024.20 1024.23 1024.22 1024.05 1023.75 1023.49 1023.11 1022.83 1022.48 1022.38 1022.45 1022.45 1022.50 1022.57 1022.53 1022.34 1022.42 1022.57 1022.62 1022.50 1022.55
1018.21 1017.71 1017.74 1017.51 1017.37 1017.48 1017.59 1017.81 1018.13 1018.66 1019.18 1019.48 1019.94 1020.79 1021.44 1021.94 1022.72 1023.14 1023.63 1023.91 1024.12 1024.30 1024.24 1024.22 1024.19 1024.06 1023.81 1023.59 1023.31 1022.99 1022.78 1022.64 1022.61 1022.57 1022.50 1022.45 1022.54 1022.65 1022.53 1022.54 1022.57 1022.41 1022.28 1022.21
Wind_Speed
7 7 4 2 3 3 5 3 7 3 2 5 6 7 6 4 12 16 17 18 19 17 12 16 17 14 15 11 9 8 6 5 3 4 4 5 2 2 4 3 4 5 6 6
7 2 2 3 6 7 4 8 5 5 7 6 8 8 6 9 7 13 18 17 18 16 17 17 17 16 13 10 7 6 7 8 5 5 3 2 1 2 3 4 6 5 6 7
7 3 3 6 7 8 5 6 3 2 3 6 13 7 7 7 12 13 12 13 15 17 16 15 15 10 8 6 5 6 7 7 6 6 3 2 1 1 2 1 3 4 7 6
7 6 7 6 4 1 3 3 4 3 3 6 2 4 5 5 11 12 11 11 13 16 13 13 12 9 8 5 4 5 6 7 5 6 4 3 2 0 1 2 2 4 7 7
3 5 6 6 0 1 4 1 1 1 3 3 3 8 5 5 8 7 6 10 9 10 14 11 10 9 8 7 7 6 5 3 3 3 5 4 2 2 2 3 5 6 6 8
5 2 3 2 3 1 2 1 6 5 3 4 5 6 4 3 7 5 5 6 7 8 8 7 6 7 5 3 5 4 6 6 4 5 5 5 5 5 4 2 3 2 3 3
5 4 5 4 4 6 8 6 4 5 6 5 4 8 2 2 5 11 10 7 7 8 7 7 7 5 4 6 6 5 8 10 9 10 9 8 6 4 3 3 2 4 3 3
4 5 4 6 2 1 4 5 6 5 3 4 6 4 0 4 11 9 8 7 7 8 7 5 7 7 8 7 9 12 11 9 7 7 5 3 2 1 2 2 5 3 4 3
5 1 2 1 2 2 3 5 4 7 3 4 1 3 2 3 7 9 8 9 6 8 8 11 8 7 10 11 9 8 7 5 5 4 1 1 1 3 4 6 6 4 4 4
3 5 1 2 5 7 6 2 5 5 3 2 3 3 4 5 5 9 7 9 12 9 9 9 8 8 7 6 4 3 3 3 3 3 3 4 2 4 6 6 6 6 5 4
2 5 5 4 3 0 5 3 5 5 4 5 2 5 3 8 8 10 6 7 8 8 7 7 6 6 5 3 3 2 3 2 5 4 4 5 4 6 5 5 5 6 5 5
2 6 4 1 3 1 2 3 5 6 2 2 4 6 3 6 11 14 11 10 9 9 7 5 5 4 2 1 3 4 5 5 4 6 6 7 6 5 6 3 4 4 7 4
3 2 4 7 7 6 4 2 5 6 4 4 6 7 4 1 4 5 10 8 9 6 5 4 3 2 4 4 5 4 5 6 5 6 6 7 7 7 4 3 4 3 4 6
2 3 5 7 4 3 2 3 3 5 4 4 7 6 6 7 11 7 7 9 7 5 5 5 7 5 4 1 2 5 6 5 5 6 6 7 8 6 3 1 2 2 2 8
4 4 2 2 4 2 1 1 2 5 5 6 7 7 8 8 8 7 9 7 7 6 5 5 4 4 3 1 6 5 4 5 4 5 5 3 3 2 4 5 4 5 7 7
4 0 3 1 5 6 3 5 6 5 4 5 2 3 4 5 7 7 6 7 5 3 1 3 5 5 2 3 3 3 4 4 3 3 1 4 2 3 6 6 6 6 7 4
3 4 4 4 4 5 6 6 3 2 2 3 5 5 5 5 7 6 6 6 5 3 4 6 4 1 2 3 2 2 4 4 4 2 3 4 2 4 5 5 5 6 7 5
5 5 3 2 4 1 6 4 5 7 3 8 10 6 6 7 5 6 5 5 5 5 5 3 0 2 2 1 2 4 5 6 2 2 2 2 3 5 5 4 3 2 8 3
4 6 4 4 3 6 4 5 6 6 5 6 10 7 6 7 5 3 5 4 4 4 2 1 0 1 2 3 6 5 6 5 2 2 2 2 3 5 6 5 6 4 2 3
7 7 6 3 4 7 7 3 5 5 5 9 8 8 7 8 3 4 5 2 3 3 1 2 0 2 2 6 6 6 6 3 2 4 5 5 6 6 7 6 6 0 2 4
3 4 5 3 2 10 7 4 3 6 9 8 8 8 7 6 6 4 1 2 1 2 5 4 5 2 6 6 5 5 3 3 3 4 5 5 5 5 5 1 1 3 5 4
8 8 5 3 2 10 8 5 8 8 4 7 6 7 7 6 6 4 3 1 5 6 6 5 4 5 6 4 5 4 3 3 3 4 4 4 5 4 4 3 4 4 5 5
3 10 8 11 10 6 7 7 5 8 7 7 8 6 7 7 5 4 3 6 6 6 3 3 3 4 5 6 4 4 5 6 6 3 2 2 4 4 4 3 4 3 3 3
5 5 3 3 6 9 8 0 5 5 6 6 6 6 6 5 6 6 6 5 4 3 3 3 5 5 6 5 4 4 6 6 6 4 1 2 4 5 3 2 3 3 2 1
6 5 5 5 4 2 3 2 6 7 8 7 7 5 5 7 7 7 5 5 3 2 2 3 4 5 6 6 6 6 6 6 5 3 1 1 1 2 3 3 2 1 3 3
4 7 5 8 7 5 6 8 7 8 8 9 7 7 6 7 7 6 5 3 2 2 3 4 5 6 6 5 8 6 3 4 4 5 4 2 1 1 2 3 1 2 4 4
Wind_Direction
1 63 133 236 156 208 248 90 119 100 163 99 93 66 42 53 81 92 89 90 82 70 60 63 64 74 78 60 54 34 48 16 74 48 56 51 63 75 62 62 73 36 18 14
29 95 237 23 40 57 68 88 11 9 12 84 103 60 28 54 57 96 106 101 98 90 75 72 71 70 63 77 65 47 54 68 73 79 68 65 60 64 135 70 38 30 52 40
134 200 11 86 39 73 33 98 86 163 338 42 110 39 58 36 76 78 75 97 98 102 98 92 90 91 90 79 112 103 89 80 73 90 95 56 64 21 24 41 73 46 57 55
84 351 103 84 66 83 61 168 156 145 94 154 142 142 36 110 88 82 90 92 102 109 107 105 103 101 113 135 112 102 116 123 132 129 112 108 106 31 13 56 62 42 45 39
226 62 62 68 15 91 204 295 61 55 93 81 12 93 160 213 107 110 106 108 117 127 120 121 133 144 147 144 145 163 146 130 156 119 128 141 135 108 100 72 52 27 26 47
94 138 72 274 308 310 307 7 37 50 60 46 300 124 200 231 152 118 108 122 130 118 112 125 128 115 116 116 96 70 66 31 33 81 46 72 87 84 68 49 35 27 121 58
45 7 323 40 37 3 41 56 11 20 15 205 324 56 274 163 120 129 126 134 131 118 135 121 126 126 77 38 30 53 41 36 40 57 54 56 74 97 89 56 25 87 352 53
128 353 356 327 88 207 9 106 144 161 171 267 6 79 214 116 126 143 124 134 119 127 136 132 76 71 67 60 50 60 65 62 58 65 56 37 29 178 169 168 141 159 167 167
128 150 293 356 324 124 318 50 159 106 9 68 262 38 28 173 131 123 156 182 138 70 76 96 92 78 69 64 58 72 73 86 100 113 112 306 265 189 166 153 169 169 175 167
176 110 275 334 26 6 99 174 42 6 102 111 334 185 216 165 92 68 54 93 94 85 86 78 68 71 76 86 108 106 114 129 189 212 227 240 238 190 185 182 189 194 185 187
71 97 285 47 29 337 8 23 58 104 110 146 141 274 275 128 122 110 103 97 107 108 94 84 77 85 107 89 46 342 313 262 249 284 277 272 260 217 215 204 208 207 212 214
24 115 82 155 278 302 118 117 103 110 238 70 138 262 189 173 141 140 149 133 116 104 87 79 76 81 72 11 1 12 1 349 325 301 295 286 303 257 251 254 289 316 321 346
10 40 68 353 350 347 114 114 102 99 78 196 125 258 179 153 74 129 108 106 100 113 111 102 90 73 34 17 21 11 7 9 341 337 335 325 305 282 266 309 44 33 29 357
72 82 148 178 197 184 142 111 138 114 117 189 213 219 179 170 121 109 107 111 113 106 83 42 25 0 343 9 13 11 19 14 15 5 336 314 312 331 62 173 153 128 231 270
84 112 82 56 27 26 215 132 118 194 203 165 243 217 174 163 142 146 132 125 97 66 47 21 348 318 293 2 17 33 18 9 356 357 2 34 71 146 229 239 231 225 261 281
18 166 54 59 14 17 317 293 256 241 227 231 205 61 106 121 98 101 123 111 107 101 18 301 286 331 343 28 81 26 352 334 343 343 80 301 339 293 278 276 262 288 272 262
73 108 76 256 6 358 349 222 213 170 36 222 217 176 130 120 133 152 146 140 153 174 238 262 299 258 79 117 109 340 304 294 312 259 278 359 293 308 311 304 289 297 304 281
112 89 75 193 31 15 248 304 206 140 90 111 103 129 148 160 162 152 176 165 190 222 254 306 335 34 99 188 326 288 275 274 261 271 20 315 308 316 321 306 339 314 264 313
85 114 92 128 193 298 300 190 160 165 224 176 146 154 143 147 115 209 197 197 209 224 295 175 281 168 180 262 263 271 294 302 214 333 305 285 275 287 282 272 277 278 251 97
69 77 112 144 138 216 235 215 131 84 277 177 152 168 161 143 170 243 205 252 217 328 170 107 137 147 319 304 318 318 310 352 314 283 289 292 294 288 287 284 277 13 100 108
48 9 149 140 214 286 239 207 113 100 238 166 166 171 168 179 193 204 265 188 225 67 77 58 60 3 296 319 331 343 350 334 282 304 308 314 327 312 302 356 11 113 109 103
165 147 195 101 89 279 186 120 172 205 164 160 163 167 164 177 186 186 192 216 71 59 42 61 13 337 324 340 345 329 318 297 293 303 317 335 335 340 359 51 101 112 120 126
218 187 181 183 211 241 214 196 186 164 156 170 150 168 164 171 180 166 121 90 79 85 38 2 351 343 345 326 343 324 289 288 283 292 315 343 351 356 359 79 140 117 129 138
249 153 199 99 237 223 238 93 150 162 156 149 142 150 171 166 157 108 111 95 89 44 28 346 359 339 319 313 326 293 297 296 277 241 273 5 2 343 356 61 117 130 159 179
207 129 201 254 287 49 356 176 149 124 123 131 141 154 157 117 106 124 112 106 90 57 346 331 336 319 305 309 311 307 320 322 283 256 267 315 333 346 4 96 125 160 236 185
192 197 171 230 217 196 205 173 156 145 168 169 134 99 97 119 127 125 117 119 96 8 343 340 316 305 302 326 323 309 344 20 332 289 265 253 251 286 130 137 129 297 256 250